GFSFLT2_sfc_vis_360.txt.gz
Visibility
14.2 15.0 15.0 5.2 15.0 4.5 5.0 2.5 15.0 13.9 4.3 15.0 15.0 15.0 5.5 15.0 15.0 15.0 15.0 15.0 14.0 15.0 15.0 15.0 15.0 15.0 14.8 15.0 15.0 15.0 15.0 15.0
15.0 11.1 14.1 15.0 14.9 12.1 6.1 3.1 2.6 15.0 15.0 3.2 12.6 15.0 15.0 15.0 15.0 15.0 15.0 15.0 13.3 15.0 15.0 15.0 15.0 15.0 15.0 15.0 15.0 15.0 15.0 15.0
15.0 15.0 15.0 15.0 15.0 15.0 15.0 3.2 15.0 15.0 15.0 14.4 6.7 15.0 15.0 15.0 15.0 15.0 15.0 15.0 12.3 15.0 15.0 15.0 15.0 15.0 15.0 15.0 15.0 15.0 15.0 15.0
15.0 15.0 15.0 15.0 15.0 15.0 15.0 5.5 15.0 15.0 15.0 15.0 15.0 9.3 9.5 15.0 15.0 15.0 15.0 15.0 7.5 15.0 15.0 15.0 15.0 15.0 15.0 15.0 15.0 15.0 15.0 15.0
15.0 15.0 15.0 15.0 15.0 15.0 15.0 15.0 5.1 4.3 8.0 15.0 15.0 15.0 15.0 15.0 15.0 14.2 15.0 15.0 15.0 15.0 15.0 15.0 15.0 15.0 15.0 15.0 15.0 15.0 15.0 15.0
15.0 15.0 15.0 11.1 15.0 15.0 15.0 15.0 3.8 10.6 3.8 15.0 0.5 0.2 1.7 2.1 15.0 4.0 13.0 15.0 15.0 4.5 15.0 15.0 15.0 15.0 15.0 15.0 15.0 15.0 15.0 15.0
15.0 15.0 15.0 15.0 15.0 15.0 15.0 15.0 15.0 15.0 15.0 7.0 7.7 0.1 8.5 15.0 15.0 12.5 11.3 15.0 12.2 15.0 11.0 15.0 15.0 15.0 15.0 15.0 15.0 15.0 15.0 15.0
15.0 15.0 15.0 15.0 15.0 15.0 15.0 15.0 15.0 15.0 15.0 15.0 15.0 0.9 0.2 3.5 7.0 6.4 9.3 7.2 15.0 12.9 8.1 15.0 15.0 15.0 15.0 15.0 15.0 15.0 15.0 15.0
15.0 15.0 15.0 14.9 15.0 15.0 15.0 15.0 15.0 15.0 15.0 15.0 14.4 15.0 4.1 0.7 6.9 1.6 15.0 15.0 5.4 8.3 4.6 15.0 15.0 15.0 15.0 15.0 15.0 15.0 15.0 15.0
15.0 15.0 15.0 15.0 15.0 15.0 15.0 15.0 15.0 15.0 15.0 15.0 13.3 3.9 14.8 0.2 0.1 7.3 13.4 15.0 0.3 0.1 5.5 10.8 14.3 15.0 15.0 15.0 15.0 15.0 15.0 15.0
15.0 15.0 15.0 15.0 15.0 15.0 15.0 15.0 15.0 15.0 15.0 15.0 13.8 10.8 9.0 9.0 0.2 0.5 0.5 1.0 15.0 3.0 0.2 3.2 10.2 14.5 14.6 15.0 15.0 15.0 15.0 15.0
15.0 15.0 15.0 15.0 15.0 15.0 15.0 15.0 15.0 15.0 15.0 15.0 13.2 15.0 10.5 15.0 0.9 3.2 0.4 0.1 0.4 7.6 0.2 5.5 9.3 8.2 9.3 15.0 15.0 15.0 15.0 15.0
15.0 15.0 15.0 15.0 15.0 15.0 15.0 15.0 15.0 15.0 15.0 15.0 15.0 8.1 15.0 2.7 15.0 0.5 0.4 0.3 0.3 15.0 15.0 0.4 6.6 2.6 2.6 15.0 15.0 15.0 15.0 15.0
15.0 15.0 15.0 15.0 15.0 15.0 15.0 15.0 15.0 15.0 15.0 15.0 15.0 12.7 10.6 15.0 15.0 15.0 2.4 0.4 9.5 11.5 15.0 0.2 7.9 0.8 3.5 7.0 11.2 11.1 15.0 15.0
15.0 15.0 15.0 15.0 15.0 15.0 15.0 15.0 15.0 15.0 15.0 15.0 15.0 15.0 15.0 15.0 15.0 10.4 1.5 0.3 0.2 6.2 15.0 14.1 0.2 0.4 3.3 4.8 0.2 10.1 15.0 15.0
15.0 15.0 15.0 15.0 15.0 15.0 15.0 15.0 15.0 15.0 15.0 15.0 15.0 15.0 15.0 15.0 15.0 15.0 13.0 1.3 0.2 1.5 14.8 12.5 12.9 0.5 0.2 1.8 8.3 6.8 8.0 15.0
15.0 15.0 15.0 15.0 15.0 15.0 15.0 15.0 15.0 15.0 15.0 15.0 15.0 15.0 15.0 15.0 15.0 15.0 15.0 15.0 10.4 0.8 0.3 15.0 15.0 15.0 15.0 1.8 1.6 10.1 9.6 14.9
15.0 15.0 15.0 15.0 15.0 15.0 15.0 15.0 15.0 15.0 15.0 15.0 15.0 15.0 15.0 15.0 15.0 15.0 15.0 14.6 14.3 6.8 0.8 15.0 14.5 15.0 15.0 15.0 15.0 11.1 14.4 14.0
15.0 15.0 15.0 15.0 15.0 15.0 15.0 15.0 15.0 15.0 15.0 15.0 15.0 15.0 15.0 15.0 15.0 15.0 15.0 15.0 15.0 15.0 0.2 4.7 15.0 8.1 14.5 15.0 15.0 15.0 15.0 15.0
15.0 15.0 15.0 15.0 15.0 15.0 15.0 15.0 15.0 15.0 15.0 15.0 15.0 15.0 15.0 15.0 15.0 15.0 15.0 15.0 15.0 15.0 15.0 0.6 12.2 9.8 9.3 13.7 15.0 15.0 15.0 15.0

GFSFLT2_sfc_vis_363.txt.gz
Visibility
15.0 15.0 15.0 15.0 15.0 7.7 8.0 6.7 4.0 3.7 15.0 12.4 15.0 15.0 15.0 15.0 12.2 15.0 15.0 15.0 15.0 15.0 15.0 15.0 13.9 15.0 15.0 15.0 15.0 15.0 15.0 15.0
15.0 15.0 15.0 15.0 15.0 15.0 14.0 15.0 4.8 3.7 10.4 13.9 15.0 14.7 15.0 2.8 15.0 3.8 15.0 15.0 15.0 8.7 15.0 15.0 15.0 15.0 15.0 15.0 15.0 15.0 15.0 15.0
15.0 14.9 15.0 15.0 15.0 15.0 15.0 15.0 15.0 4.3 13.7 7.1 8.0 15.0 15.0 15.0 15.0 15.0 8.3 15.0 15.0 15.0 15.0 15.0 15.0 15.0 15.0 15.0 15.0 15.0 15.0 15.0
15.0 15.0 15.0 15.0 15.0 15.0 15.0 15.0 15.0 15.0 15.0 15.0 2.2 15.0 15.0 15.0 15.0 12.4 15.0 4.3 15.0 15.0 15.0 15.0 15.0 15.0 15.0 15.0 15.0 15.0 15.0 15.0
15.0 15.0 15.0 15.0 15.0 15.0 15.0 15.0 15.0 15.0 15.0 15.0 14.9 1.2 4.9 0.5 15.0 15.0 15.0 5.6 15.0 15.0 14.7 14.7 15.0 15.0 15.0 15.0 15.0 15.0 15.0 15.0
15.0 15.0 15.0 14.9 15.0 15.0 15.0 15.0 15.0 15.0 15.0 14.5 11.9 0.1 0.1 6.7 0.6 7.0 15.0 15.0 6.7 2.9 4.7 15.0 15.0 15.0 15.0 15.0 15.0 15.0 15.0 15.0
15.0 15.0 15.0 15.0 14.4 15.0 15.0 15.0 15.0 15.0 15.0 15.0 5.6 1.8 0.2 15.0 7.9 8.2 6.6 15.0 15.0 0.3 3.8 15.0 15.0 15.0 15.0 15.0 15.0 15.0 15.0 15.0
15.0 15.0 15.0 15.0 15.0 15.0 15.0 15.0 15.0 15.0 15.0 15.0 14.8 10.1 0.2 0.2 15.0 9.7 4.8 15.0 10.7 15.0 6.1 5.5 15.0 15.0 15.0 15.0 15.0 15.0 15.0 15.0
15.0 15.0 15.0 15.0 15.0 15.0 15.0 15.0 15.0 15.0 15.0 15.0 14.2 8.7 5.0 0.9 0.2 5.3 12.0 2.8 14.4 9.2 1.0 6.1 15.0 15.0 15.0 15.0 15.0 15.0 15.0 15.0
15.0 15.0 15.0 15.0 15.0 15.0 15.0 15.0 15.0 15.0 15.0 15.0 15.0 12.7 7.0 2.6 0.1 0.5 4.1 4.7 10.5 6.4 3.2 11.5 8.3 15.0 15.0 15.0 15.0 15.0 15.0 15.0
15.0 15.0 15.0 15.0 15.0 15.0 15.0 15.0 15.0 15.0 15.0 15.0 15.0 10.3 13.4 2.9 0.4 0.3 2.3 0.1 3.9 0.1 0.1 3.8 4.9 8.1 15.0 15.0 15.0 15.0 15.0 15.0
15.0 15.0 15.0 15.0 15.0 15.0 15.0 15.0 15.0 15.0 15.0 15.0 15.0 14.7 15.0 3.8 5.2 5.7 0.3 0.1 0.2 0.4 0.2 1.3 5.2 5.5 15.0 15.0 15.0 15.0 15.0 15.0
15.0 15.0 15.0 15.0 15.0 15.0 15.0 15.0 15.0 15.0 15.0 15.0 15.0 11.2 15.0 11.3 15.0 8.5 0.7 0.1 0.2 0.2 0.4 0.6 2.3 1.2 6.6 8.7 15.0 15.0 15.0 15.0
15.0 15.0 15.0 15.0 15.0 15.0 15.0 15.0 15.0 15.0 15.0 15.0 15.0 13.3 4.6 5.7 3.6 4.4 7.7 0.1 0.1 0.2 11.4 0.3 2.9 1.1 4.3 4.4 0.6 8.4 15.0 15.0
15.0 15.0 15.0 15.0 15.0 15.0 15.0 15.0 15.0 15.0 15.0 15.0 15.0 15.0 12.1 8.4 15.0 9.4 2.2 7.2 0.1 0.6 14.3 9.3 13.6 6.5 4.9 2.1 0.3 0.5 15.0 15.0
15.0 15.0 15.0 15.0 15.0 15.0 15.0 15.0 15.0 15.0 15.0 15.0 15.0 15.0 15.0 15.0 14.5 13.9 4.9 3.0 0.5 0.1 4.8 5.1 3.4 0.2 0.1 8.9 3.4 15.0 15.0 0.1
15.0 15.0 15.0 15.0 15.0 15.0 15.0 15.0 15.0 15.0 15.0 15.0 15.0 15.0 15.0 15.0 15.0 15.0 6.7 3.4 6.7 5.0 0.1 0.8 15.0 2.8 14.7 0.3 10.5 4.7 14.7 15.0
15.0 15.0 15.0 15.0 15.0 15.0 15.0 15.0 15.0 15.0 15.0 15.0 15.0 15.0 15.0 15.0 15.0 15.0 15.0 5.5 2.7 15.0 4.7 1.1 8.7 6.4 15.0 15.0 15.0 14.5 2.0 8.5
15.0 15.0 15.0 15.0 15.0 15.0 15.0 15.0 15.0 15.0 15.0 15.0 15.0 15.0 15.0 15.0 15.0 15.0 15.0 12.4 4.2 13.2 9.4 0.3 2.3 7.5 1.5 15.0 11.7 15.0 15.0 15.0
15.0 15.0 15.0 15.0 15.0 15.0 15.0 15.0 15.0 15.0 15.0 15.0 15.0 15.0 15.0 15.0 15.0 15.0 15.0 15.0 13.9 10.4 7.8 14.2 0.2 12.2 15.0 15.0 15.0 15.0 15.0 15.0

GFSFLT2_sfc_vis_366.txt.gz
Visibility
15.0 8.5 15.0 15.0 15.0 15.0 15.0 15.0 11.6 15.0 3.7 1.6 3.5 7.5 15.0 15.0 6.2 3.0 15.0 15.0 15.0 15.0 14.7 15.0 15.0 10.5 14.7 15.0 15.0 15.0 15.0 15.0
15.0 15.0 15.0 11.0 15.0 15.0 15.0 15.0 15.0 15.0 12.0 3.7 11.5 9.0 11.4 15.0 14.4 4.7 15.0 15.0 15.0 15.0 9.4 13.4 4.5 15.0 5.7 15.0 15.0 15.0 15.0 15.0
15.0 15.0 15.0 15.0 10.5 15.0 15.0 15.0 15.0 15.0 14.1 10.7 3.0 0.4 15.0 15.0 11.6 15.0 13.2 11.3 15.0 15.0 12.9 15.0 8.5 12.3 15.0 12.7 15.0 15.0 15.0 15.0
15.0 15.0 15.0 15.0 15.0 14.7 15.0 15.0 15.0 15.0 15.0 15.0 10.2 1.6 1.1 15.0 3.3 15.0 14.1 15.0 15.0 15.0 15.0 14.0 10.6 7.6 15.0 15.0 14.8 15.0 15.0 15.0
15.0 15.0 15.0 15.0 15.0 15.0 14.4 15.0 13.7 15.0 15.0 15.0 15.0 4.0 0.2 0.4 2.2 3.1 15.0 15.0 14.0 14.1 15.0 15.0 14.3 15.0 14.8 15.0 15.0 15.0 15.0 15.0
15.0 15.0 15.0 15.0 15.0 15.0 15.0 15.0 15.0 15.0 15.0 15.0 15.0 11.6 0.8 0.3 0.3 2.9 14.7 15.0 11.1 14.8 14.8 15.0 14.6 15.0 15.0 15.0 15.0 15.0 15.0 15.0
15.0 15.0 15.0 15.0 15.0 15.0 15.0 14.8 15.0 15.0 15.0 15.0 15.0 15.0 9.1 11.2 8.3 1.0 1.2 15.0 10.5 5.9 13.6 15.0 15.0 15.0 15.0 15.0 15.0 15.0 15.0 15.0
15.0 15.0 15.0 15.0 15.0 15.0 15.0 15.0 15.0 15.0 15.0 15.0 15.0 15.0 15.0 15.0 1.0 9.3 13.6 6.0 5.0 4.7 15.0 14.7 14.3 15.0 15.0 15.0 15.0 15.0 15.0 15.0
15.0 15.0 15.0 15.0 15.0 15.0 15.0 15.0 15.0 15.0 15.0 15.0 15.0 15.0 14.9 5.1 0.2 0.4 4.9 6.3 0.5 6.3 0.3 14.7 15.0 15.0 15.0 15.0 15.0 15.0 15.0 15.0
15.0 15.0 15.0 15.0 15.0 15.0 15.0 15.0 15.0 15.0 15.0 15.0 15.0 15.0 15.0 15.0 8.0 6.7 7.4 0.5 13.9 11.7 0.8 2.2 14.6 15.0 15.0 15.0 15.0 15.0 15.0 15.0
15.0 15.0 15.0 15.0 15.0 15.0 15.0 15.0 15.0 15.0 15.0 15.0 15.0 15.0 15.0 15.0 10.5 15.0 1.9 0.4 2.1 1.4 5.1 8.6 15.0 15.0 15.0 15.0 15.0 15.0 15.0 15.0
15.0 15.0 15.0 15.0 15.0 15.0 15.0 15.0 15.0 15.0 11.1 15.0 15.0 15.0 14.8 15.0 11.9 5.0 3.0 0.1 0.1 0.7 0.1 3.5 11.8 15.0 7.4 15.0 15.0 15.0 15.0 15.0
15.0 15.0 15.0 15.0 15.0 15.0 15.0 15.0 15.0 15.0 15.0 14.7 15.0 15.0 15.0 15.0 15.0 3.9 6.3 1.1 0.1 7.1 0.1 0.1 0.1 3.4 6.7 1.9 15.0 15.0 15.0 15.0
15.0 15.0 15.0 15.0 15.0 15.0 15.0 15.0 15.0 15.0 15.0 15.0 15.0 15.0 11.2 15.0 15.0 15.0 15.0 0.9 15.0 0.2 0.4 0.1 0.5 2.2 3.9 14.4 0.2 2.6 15.0 15.0
15.0 15.0 15.0 15.0 15.0 15.0 15.0 15.0 15.0 15.0 15.0 15.0 15.0 15.0 13.3 15.0 15.0 14.2 6.6 12.5 1.0 4.3 4.2 4.1 3.9 0.3 3.6 5.7 0.4 0.5 15.0 15.0
15.0 15.0 15.0 15.0 15.0 15.0 15.0 15.0 15.0 15.0 15.0 15.0 15.0 14.3 15.0 15.0 5.9 14.4 7.9 14.5 7.8 1.2 0.4 3.1 14.8 2.8 1.3 0.9 11.1 15.0 15.0 0.1
15.0 15.0 15.0 15.0 15.0 15.0 15.0 15.0 15.0 15.0 15.0 15.0 15.0 15.0 15.0 15.0 9.1 7.8 4.3 15.0 15.0 5.1 0.3 0.2 5.6 3.9 4.7 4.3 0.4 0.7 13.7 7.1
15.0 15.0 15.0 15.0 15.0 15.0 15.0 15.0 15.0 15.0 15.0 15.0 15.0 15.0 15.0 15.0 15.0 6.1 15.0 12.3 15.0 3.8 2.2 0.3 0.4 4.9 9.1 15.0 13.7 6.0 2.4 8.3
15.0 15.0 15.0 15.0 15.0 15.0 15.0 15.0 15.0 15.0 15.0 15.0 15.0 15.0 15.0 15.0 15.0 15.0 11.7 15.0 5.8 7.3 3.0 1.6 0.3 1.5 10.5 15.0 15.0 15.0 15.0 8.0
15.0 15.0 15.0 15.0 15.0 15.0 15.0 15.0 15.0 15.0 15.0 15.0 15.0 15.0 15.0 15.0 15.0 15.0 15.0 15.0 15.0 2.6 5.4 2.5 11.1 0.1 12.5 15.0 10.1 15.0 13.7 9.1

GFSFLT2_sfc_vis_369.txt.gz
Visibility
15.0 15.0 15.0 15.0 14.9 15.0 15.0 15.0 15.0 15.0 15.0 14.0 15.0 15.0 10.4 7.0 10.4 15.0 6.0 15.0 15.0 15.0 15.0 8.3 15.0 15.0 15.0 15.0 15.0 15.0 15.0 15.0
15.0 15.0 15.0 15.0 15.0 15.0 14.9 15.0 15.0 15.0 15.0 15.0 12.9 3.3 0.2 4.3 2.8 9.8 15.0 15.0 15.0 15.0 15.0 14.6 8.8 11.3 15.0 15.0 15.0 15.0 15.0 15.0
15.0 15.0 15.0 15.0 15.0 15.0 15.0 15.0 15.0 15.0 15.0 13.0 14.8 10.6 0.3 1.5 3.0 13.1 15.0 15.0 15.0 15.0 15.0 15.0 4.5 3.3 15.0 15.0 15.0 15.0 15.0 15.0
15.0 15.0 15.0 15.0 15.0 15.0 15.0 15.0 15.0 15.0 15.0 15.0 13.7 11.2 11.6 2.5 8.1 13.4 14.8 15.0 15.0 15.0 14.3 15.0 11.9 3.7 4.0 15.0 15.0 15.0 15.0 15.0
15.0 15.0 15.0 15.0 15.0 15.0 15.0 15.0 3.9 15.0 15.0 15.0 14.4 14.7 15.0 13.7 1.1 4.7 12.2 6.9 10.8 15.0 15.0 15.0 12.0 5.2 2.4 15.0 15.0 15.0 15.0 15.0
15.0 15.0 15.0 15.0 15.0 15.0 15.0 15.0 15.0 15.0 15.0 15.0 15.0 15.0 15.0 15.0 0.3 7.6 6.2 11.7 11.5 14.8 15.0 15.0 15.0 10.1 3.7 15.0 15.0 15.0 15.0 15.0
15.0 15.0 15.0 15.0 15.0 15.0 15.0 15.0 15.0 15.0 15.0 15.0 15.0 15.0 15.0 15.0 13.1 0.7 0.4 5.8 7.1 15.0 15.0 15.0 15.0 15.0 15.0 6.7 15.0 15.0 15.0 15.0
15.0 15.0 15.0 15.0 15.0 15.0 15.0 15.0 15.0 15.0 15.0 15.0 15.0 15.0 15.0 15.0 15.0 15.0 0.6 9.5 12.8 15.0 15.0 15.0 15.0 15.0 15.0 15.0 15.0 15.0 15.0 15.0
15.0 15.0 15.0 15.0 15.0 15.0 15.0 15.0 15.0 15.0 15.0 15.0 15.0 15.0 15.0 15.0 6.6 15.0 3.0 2.4 7.8 7.8 10.8 15.0 15.0 15.0 15.0 15.0 15.0 15.0 15.0 15.0
15.0 15.0 15.0 15.0 15.0 15.0 15.0 15.0 15.0 15.0 15.0 15.0 15.0 15.0 15.0 15.0 15.0 15.0 15.0 0.2 2.9 1.3 3.2 14.5 15.0 15.0 15.0 15.0 15.0 15.0 15.0 15.0
15.0 15.0 15.0 15.0 15.0 15.0 15.0 15.0 15.0 15.0 15.0 15.0 15.0 15.0 15.0 15.0 15.0 15.0 15.0 14.1 0.2 1.5 0.3 4.1 13.8 15.0 15.0 15.0 15.0 15.0 15.0 15.0
15.0 15.0 15.0 15.0 15.0 15.0 15.0 15.0 15.0 15.0 15.0 15.0 15.0 15.0 15.0 15.0 15.0 15.0 15.0 15.0 1.6 0.3 1.4 1.3 12.4 15.0 9.4 15.0 15.0 15.0 15.0 15.0
15.0 15.0 15.0 15.0 15.0 15.0 15.0 15.0 15.0 15.0 15.0 15.0 15.0 15.0 14.9 15.0 15.0 15.0 15.0 12.8 1.4 0.4 0.2 0.3 1.1 15.0 10.4 9.1 15.0 15.0 15.0 15.0
15.0 15.0 15.0 15.0 15.0 15.0 15.0 15.0 15.0 15.0 15.0 15.0 15.0 14.1 14.0 15.0 15.0 15.0 15.0 12.3 12.5 9.4 0.2 0.4 0.3 3.3 4.2 15.0 0.1 0.5 15.0 15.0
15.0 15.0 15.0 15.0 15.0 15.0 15.0 15.0 15.0 15.0 15.0 15.0 15.0 15.0 15.0 15.0 15.0 15.0 10.0 7.0 2.0 11.9 1.7 0.7 0.1 0.3 1.7 6.8 2.2 0.3 15.0 15.0
15.0 15.0 15.0 15.0 15.0 15.0 15.0 15.0 15.0 15.0 15.0 15.0 15.0 15.0 15.0 15.0 15.0 15.0 13.7 15.0 11.9 0.9 9.2 0.1 14.5 0.3 2.7 4.7 12.9 7.9 15.0 0.9
15.0 15.0 15.0 15.0 15.0 15.0 15.0 15.0 15.0 15.0 15.0 15.0 15.0 15.0 15.0 11.6 15.0 15.0 15.0 15.0 15.0 15.0 15.0 12.3 0.8 12.4 7.2 0.9 1.6 15.0 12.1 15.0
15.0 15.0 15.0 15.0 15.0 15.0 15.0 15.0 15.0 15.0 15.0 15.0 15.0 15.0 15.0 15.0 11.1 15.0 14.2 15.0 12.5 15.0 15.0 13.2 0.1 3.4 3.9 15.0 15.0 5.6 5.5 15.0
15.0 15.0 15.0 15.0 15.0 15.0 15.0 15.0 15.0 15.0 15.0 15.0 15.0 15.0 15.0 15.0 15.0 15.0 15.0 14.9 2.4 15.0 15.0 3.5 0.2 0.1 4.2 10.4 7.7 13.8 15.0 15.0
15.0 15.0 15.0 15.0 15.0 15.0 15.0 15.0 15.0 15.0 15.0 15.0 15.0 15.0 15.0 15.0 15.0 15.0 15.0 8.1 13.2 2.1 13.6 15.0 5.4 0.3 3.1 15.0 14.8 15.0 15.0 13.7